Location: Arrakis Observatory
(44.1122°N, 95.7153°W)
Time: 01:23:56
(UTC-05:00)

Amateur Radio Satellites - All Passes

Search period start: 30 May 2015 00:53
Search period end: 31 May 2015 00:53
Location: Arrakis Observatory, 44.1122°N, 95.7153°W

Satellite Date Start Highest point End Downlink Frequencies (MHz)
Time Altitude Azimuth
BEESAT 3 30 May 00:54:34 00:56:24 13° 33° (NNE) 00:58:20 437.485
BUGSAT 1 30 May 00:56:57 01:01:15 89° 97° (E) 01:05:30 437.445
SPROUT 30 May 00:59:29 01:03:48 67° 259° (WSW) 01:08:08 437.525
ESTCUBE 1 30 May 01:01:54 01:05:01 18° 269° (W) 01:08:01 437.505/2401.250
PCSat 30 May 01:08:50 01:14:14 78° 120° (ESE) 01:19:42 145.827
TISAT 1 30 May 01:10:00 01:14:14 69° 258° (WSW) 01:18:31 437.305
GONETS M04 30 May 01:10:35 01:19:24 80° 264° (W) 01:28:06
ANTELSAT 30 May 01:19:29 01:22:37 19° 295° (WNW) 01:25:35 437.575/2403.000
QB50P1 30 May 01:33:40 01:37:18 26° 292° (WNW) 01:40:49 145.935-145.965
VERMONT LUNAR 30 May 01:35:52 01:38:31 23° 161° (SSE) 01:41:11 437.305
POLYITAN 1 30 May 01:37:39 01:41:08 24° 293° (WNW) 01:44:31 437.675
Oscar 19 30 May 01:43:20 01:46:19 16° 88° (E) 01:49:30 437.125/150
BEESAT 2 30 May 01:46:52 01:50:19 25° 43° (NE) 01:53:46 435.950
ISS 30 May 01:56:04 01:58:41 22° 354° (N) 02:01:18 145.825
AIST 2 30 May 01:58:36 02:00:50 14° 34° (NE) 02:03:10 435.215
ITUPSAT 1 30 May 01:58:49 02:03:30 63° 73° (ENE) 02:08:14 437.325
O/OREOS (USA 219) 30 May 02:01:30 02:05:50 49° 251° (WSW) 02:10:08 437.305
BEESAT 30 May 02:04:18 02:09:02 72° 73° (ENE) 02:13:48 436.000
NANOSAT C BR1 30 May 02:04:52 02:07:10 14° 297° (WNW) 02:09:19 145.865
Cosmos 2499 30 May 02:11:27 02:18:18 51° 75° (ENE) 02:25:17 435.465 / 435.565
SWISSCUBE 30 May 02:13:20 02:18:05 86° 256° (WSW) 02:22:52 437.505
STARS 30 May 02:14:12 02:15:34 11° 60° (ENE) 02:17:09 437.465
QB50P2 30 May 02:16:25 02:17:36 11° 299° (WNW) 02:18:33 145.880/145.840
DANDE 30 May 02:22:30 02:27:01 17° 282° (WNW) 02:30:42 436.750
BEESAT 3 30 May 02:31:03 02:35:09 74° 54° (NE) 02:39:10 437.485
BUGSAT 1 30 May 02:35:21 02:36:06 10° 300° (WNW) 02:36:35 437.445
PHONESAT 2.4 30 May 02:44:24 02:47:16 24° 160° (SSE) 02:50:08 2401.200-2431.200
KKS-1 30 May 02:51:25 02:55:36 40° 70° (ENE) 02:59:50 437.445
PCSat 30 May 02:54:12 02:58:20 21° 320° (NW) 03:02:23 145.827
Gurwin Techsat 1B 30 May 03:01:00 03:05:15 24° 92° (E) 03:09:36 435.225
GONETS M04 30 May 03:09:50 03:14:57 16° 284° (WNW) 03:19:31
VERMONT LUNAR 30 May 03:12:15 03:15:21 43° 177° (S) 03:18:25 437.305
SO-50 30 May 03:15:05 03:19:45 68° 122° (ESE) 03:24:35 436.795
Oscar 19 30 May 03:21:07 03:26:15 68° 287° (WNW) 03:31:21 437.125/150
BEESAT 2 30 May 03:24:41 03:28:31 38° 242° (WSW) 03:32:17 435.950
ISS 30 May 03:32:57 03:35:48 27° 14° (NNE) 03:38:39 145.825
AIST 2 30 May 03:35:54 03:40:09 80° 55° (NE) 03:44:19 435.215
ITUPSAT 1 30 May 03:39:03 03:41:54 15° 271° (W) 03:44:33 437.325
ITAMSAT 1 30 May 03:42:32 03:47:42 59° 101° (E) 03:52:52 435.822/435.867
BEESAT 30 May 03:45:10 03:47:29 13° 272° (W) 03:49:33 436.000
STARS 30 May 03:46:57 03:51:25 86° 255° (WSW) 03:55:54 437.465
AO-7 30 May 04:01:54 04:07:16 19° 87° (E) 04:13:04 29.400- 29.500
Cosmos 2499 30 May 04:05:12 04:11:08 29° 274° (W) 04:16:59 435.465 / 435.565
BEESAT 3 30 May 04:11:13 04:12:36 11° 250° (WSW) 04:13:46 437.485
PHONESAT 2.4 30 May 04:21:39 04:25:00 45° 176° (S) 04:28:20 2401.200-2431.200
KKS-1 30 May 04:28:57 04:32:25 21° 268° (W) 04:35:49 437.445
Gurwin Techsat 1B 30 May 04:40:25 04:45:30 46° 290° (WNW) 04:50:33 435.225
MOZHAYETS 4 30 May 04:44:48 04:49:12 50° 72° (ENE) 04:53:38
VERMONT LUNAR 30 May 04:49:20 04:52:14 31° 194° (SSW) 04:55:07 437.305
SO-50 30 May 04:57:00 05:00:47 22° 322° (NW) 05:04:36 436.795
JAS-2 30 May 04:59:07 05:04:11 52° 100° (E) 05:09:28 435.910
Cosmos 2491 30 May 05:00:41 05:06:01 18° 55° (NE) 05:11:48 435.465 / 435.565
Oscar 19 30 May 05:04:14 05:04:45 10° 304° (NW) 05:04:59 437.125/150
ISS 30 May 05:09:12 05:12:29 78° 214° (SW) 05:15:44 145.825
HORYU 2 30 May 05:10:45 05:15:12 73° 102° (ESE) 05:19:36 437.375
AIST 2 30 May 05:16:58 05:18:09 11° 251° (WSW) 05:19:07 435.215
ITAMSAT 1 30 May 05:22:59 05:26:50 21° 298° (WNW) 05:30:32 435.822/435.867
AO-7 30 May 05:52:55 06:01:22 88° 108° (ESE) 06:09:46 29.400- 29.500
YUBILEINY 30 May 05:57:41 06:00:31 12° 74° (ENE) 06:04:02 435.215
PHONESAT 2.4 30 May 05:59:36 06:02:49 35° 193° (SSW) 06:06:02 2401.200-2431.200
STRAND 1 30 May 06:02:45 06:05:35 16° 60° (ENE) 06:08:38 437.568
CUTE-I 30 May 06:22:49 06:25:02 13° 86° (E) 06:27:34 437.470
MOZHAYETS 4 30 May 06:23:40 06:26:47 17° 270° (W) 06:29:44
PRISM 30 May 06:26:49 06:29:54 22° 66° (ENE) 06:33:05 437.425
VERMONT LUNAR 30 May 06:27:51 06:28:51 11° 209° (SSW) 06:29:47 437.305
CUBESAT XI-V 30 May 06:33:11 06:37:41 56° 73° (ENE) 06:42:15 437.345
M-CUBED/EXP-1 PRIME 30 May 06:35:26 06:38:00 17° 62° (ENE) 06:40:33 437.505
AUBIESAT-1 30 May 06:40:16 06:42:44 17° 62° (ENE) 06:45:12 437.475
Cubesat XI-IV 30 May 06:43:14 06:47:07 21° 91° (E) 06:51:09 437.490
JAS-2 30 May 06:45:11 06:49:04 21° 297° (WNW) 06:52:54 435.910
ISS 30 May 06:47:43 06:48:26 10° 228° (SW) 06:49:01 145.825
HORYU 2 30 May 06:49:09 06:51:19 13° 299° (WNW) 06:53:17 437.375
Cosmos 2491 30 May 06:55:53 07:04:47 77° 80° (E) 07:13:35 435.465 / 435.565
AIST 1 30 May 07:01:41 07:04:45 19° 69° (ENE) 07:07:56
PHONESAT 2.4 30 May 07:38:33 07:40:23 14° 208° (SSW) 07:42:10 2401.200-2431.200
STRAND 1 30 May 07:39:08 07:44:13 77° 256° (WSW) 07:49:22 437.568
AO-7 30 May 07:46:51 07:53:17 25° 308° (NW) 07:59:30 29.400- 29.500
YUBILEINY 30 May 07:47:12 07:55:49 66° 93° (E) 08:04:27 435.215
RS-15 30 May 07:57:31 08:06:10 30° 105° (ESE) 08:15:20 29.354- 29.394
CUTE-I 30 May 08:00:31 08:05:56 86° 288° (WNW) 08:11:19 437.470
PRISM 30 May 08:01:26 08:05:11 34° 263° (W) 08:08:56 437.425
M-CUBED/EXP-1 PRIME 30 May 08:08:44 08:12:40 43° 255° (WSW) 08:16:18 437.505
CUBESAT XI-V 30 May 08:12:40 08:15:33 16° 271° (W) 08:18:18 437.345
PCSat 30 May 08:12:52 08:16:29 18° 37° (NE) 08:20:13 145.827
AUBIESAT-1 30 May 08:13:25 08:17:19 44° 255° (WSW) 08:20:56 437.475
Cubesat XI-IV 30 May 08:22:22 08:27:38 56° 289° (WNW) 08:32:53 437.490
HO-68 30 May 08:28:02 08:30:33 12° 83° (E) 08:33:35 435.675
GOMX 1 30 May 08:37:54 08:41:10 17° 86° (E) 08:44:31 467.674
AIST 1 30 May 08:38:29 08:42:39 42° 267° (W) 08:46:48
Cosmos 2504 30 May 08:42:49 08:46:18 14° 79° (ENE) 08:50:11 435.465 / 435.565
BRITE-PL 30 May 08:52:41 08:57:51 37° 94° (E) 09:02:47 437.365/2234.400
Cosmos 2491 30 May 08:54:05 09:00:49 24° 279° (W) 09:07:09 435.465 / 435.565
DOVE 4 30 May 09:20:20 09:24:31 26° 91° (E) 09:28:35 437.250
TIGRISAT 30 May 09:39:27 09:41:16 12° 61° (ENE) 09:43:15 435.000
CUTE-I 30 May 09:42:35 09:45:18 14° 302° (WNW) 09:47:46 437.470
YUBILEINY 30 May 09:45:56 09:53:26 30° 296° (WNW) 10:00:44 435.215
PCSat 30 May 09:55:19 10:00:48 85° 61° (ENE) 10:06:13 145.827
CANX-2 30 May 09:59:30 10:03:42 65° 101° (E) 10:07:52 2200.000
UNISAT 6 30 May 09:59:52 10:03:09 20° 65° (ENE) 10:06:33 437.425
CUTE 1.7 + AOD 2 30 May 10:02:28 10:06:40 63° 100° (E) 10:10:50 437.475
SO-50 30 May 10:05:28 10:08:57 19° 34° (NE) 10:12:30 436.795
RS-15 30 May 10:06:35 10:17:31 79° 307° (NW) 10:28:50 29.354- 29.394
CINEMA 3 30 May 10:08:19 10:12:39 36° 96° (E) 10:16:47 145.822/145.860
DUCHIFAT 1 30 May 10:10:28 10:11:10 10° 60° (ENE) 10:12:05 145.980
POPSAT HIP 1 30 May 10:11:11 10:12:19 11° 61° (ENE) 10:13:40 437.405
HO-68 30 May 10:12:33 10:19:43 73° 104° (ESE) 10:26:51 435.675
GOMX 1 30 May 10:14:35 10:19:55 65° 286° (WNW) 10:24:53 467.674
SEEDS 30 May 10:19:13 10:23:25 80° 102° (ESE) 10:27:36 437.485
ZACube-1 30 May 10:21:27 10:23:55 15° 89° (E) 10:26:31 437.345
Oscar 11 30 May 10:24:26 10:28:10 29° 95° (E) 10:31:55 145.826/435.025
COMPASS 1 30 May 10:26:27 10:30:37 77° 100° (E) 10:34:46 437.405
Cosmos 2504 30 May 10:30:27 10:38:39 76° 96° (E) 10:46:19 435.465 / 435.565
BRITE-PL 30 May 10:31:14 10:36:17 34° 293° (WNW) 10:41:03 437.365/2234.400
CUBEBUG 2 30 May 10:35:05 10:39:06 34° 96° (E) 10:43:01 437.445
AAUSAT CUBESAT 2 30 May 10:35:22 10:39:32 83° 102° (ESE) 10:43:40 437.432
DELFI C3 30 May 10:38:03 10:41:32 28° 95° (E) 10:45:03 145.870
ANTELSAT 30 May 10:41:55 10:46:24 49° 72° (ENE) 10:50:52 437.575/2403.000
QB50P1 30 May 10:51:57 10:55:35 28° 68° (ENE) 10:59:19 145.935-145.965
POLYITAN 1 30 May 10:55:53 10:59:41 31° 69° (ENE) 11:03:33 437.675
DOVE 4 30 May 10:57:42 11:02:25 38° 291° (WNW) 11:06:50 437.250
TIGRISAT 30 May 11:12:44 11:17:26 84° 259° (W) 11:22:04 435.000
FUNcube-1 30 May 11:14:12 11:18:26 55° 100° (E) 11:22:33 145.935
UWE-3 30 May 11:14:17 11:18:39 73° 101° (ESE) 11:22:53 435.000/436.395/437.385
HUMSAT D 30 May 11:20:00 11:23:38 29° 95° (E) 11:27:15 437.325/437.525
NANOSAT C BR1 30 May 11:21:14 11:25:25 56° 73° (ENE) 11:29:40 145.865
50 SAT 30 May 11:24:32 11:27:07 17° 92° (E) 11:29:47 437.505
AISAT 30 May 11:30:44 11:34:08 21° 92° (E) 11:37:38 437.250
QB50P2 30 May 11:32:00 11:36:18 77° 76° (ENE) 11:40:37 145.880/145.840
UNISAT 6 30 May 11:35:06 11:39:39 49° 261° (W) 11:44:08 437.425
CANX-2 30 May 11:37:06 11:39:09 13° 297° (WNW) 11:41:03 2200.000
CUTE 1.7 + AOD 2 30 May 11:39:58 11:42:08 13° 297° (WNW) 11:44:06 437.475
PCSat 30 May 11:40:39 11:43:34 14° 255° (WSW) 11:46:12 145.827
DUCHIFAT 1 30 May 11:42:04 11:46:21 88° 253° (WSW) 11:50:41 145.980
POPSAT HIP 1 30 May 11:43:17 11:47:36 84° 257° (WSW) 11:51:56 437.405
SO-50 30 May 11:45:14 11:50:14 89° 55° (NE) 11:55:08 436.795
CINEMA 3 30 May 11:45:50 11:49:41 25° 294° (WNW) 11:53:17 145.822/145.860
BUGSAT 1 30 May 11:48:05 11:52:16 75° 75° (ENE) 11:56:31 437.445
UKube-1 30 May 11:50:09 11:54:28 58° 101° (E) 11:58:45 .
GOMX 1 30 May 11:56:19 11:57:01 10° 304° (NW) 11:57:24 467.674
ZACube-1 30 May 11:56:29 12:00:41 50° 287° (WNW) 12:04:44 437.345
SEEDS 30 May 11:57:30 11:58:39 11° 298° (WNW) 11:59:36 437.485
Oscar 11 30 May 12:00:37 12:04:18 27° 292° (WNW) 12:07:55 145.826/435.025
HO-68 30 May 12:01:12 12:06:54 25° 303° (WNW) 12:12:23 435.675
DX 1 30 May 12:04:30 12:08:56 89° 107° (ESE) 12:13:19 434.975-435.025
COMPASS 1 30 May 12:04:30 12:05:45 11° 298° (WNW) 12:06:49 437.405
DANDE 30 May 12:06:14 12:11:38 22° 81° (E) 12:17:47 436.750
CUSAT 1 30 May 12:10:42 12:17:04 30° 85° (E) 12:24:02 437.405
CUBEBUG 2 30 May 12:12:04 12:15:39 24° 294° (WNW) 12:19:04 437.445
DELFI C3 30 May 12:13:15 12:16:34 24° 292° (WNW) 12:19:48 145.870
AAUSAT CUBESAT 2 30 May 12:13:57 12:14:35 10° 298° (WNW) 12:14:58 437.432
GONETS M04 30 May 12:18:50 12:25:28 26° 81° (E) 12:32:24
ANTELSAT 30 May 12:20:10 12:23:29 18° 269° (W) 12:26:38 437.575/2403.000
CUBEBUG 1 30 May 12:20:46 12:24:52 36° 97° (E) 12:28:59 437.445
RS-15 30 May 12:22:23 12:32:04 33° 337° (NNW) 12:41:58 29.354- 29.394
Cosmos 2504 30 May 12:26:36 12:32:53 23° 296° (WNW) 12:38:38 435.465 / 435.565
QB50P1 30 May 12:27:42 12:31:26 28° 265° (W) 12:35:08 145.935-145.965
POLYITAN 1 30 May 12:32:00 12:35:38 25° 266° (W) 12:39:12 437.675
VELOX 1 30 May 12:33:22 12:37:53 89° 285° (WNW) 12:42:21 145.980
SPROUT 30 May 12:45:33 12:48:36 19° 91° (E) 12:51:47 437.525
ESTCUBE 1 30 May 12:51:09 12:55:43 86° 99° (E) 13:00:18 437.505/2401.250
FUNcube-1 30 May 12:51:46 12:54:22 15° 297° (WNW) 12:56:45 145.935
UWE-3 30 May 12:52:42 12:54:38 12° 299° (WNW) 12:56:20 435.000/436.395/437.385
TISAT 1 30 May 12:54:08 12:56:50 17° 90° (E) 12:59:41 437.305
HUMSAT D 30 May 12:55:51 12:59:18 25° 292° (WNW) 13:02:38 437.325/437.525
50 SAT 30 May 12:58:24 13:02:00 36° 289° (WNW) 13:05:31 437.505
NANOSAT C BR1 30 May 12:59:18 13:01:41 14° 271° (W) 13:03:53 145.865
Oscar 19 30 May 13:01:09 13:05:28 28° 66° (ENE) 13:09:54 437.125/150
AISAT 30 May 13:06:41 13:10:55 40° 290° (WNW) 13:15:04 437.250
QB50P2 30 May 13:12:02 13:12:49 10° 274° (W) 13:13:20 145.880/145.840
ITAMSAT 1 30 May 13:25:29 13:28:19 15° 59° (ENE) 13:31:21 435.822/435.867
UKube-1 30 May 13:27:32 13:30:11 16° 297° (WNW) 13:32:41 .
SO-50 30 May 13:27:55 13:30:08 13° 252° (WSW) 13:32:06 436.795
BUGSAT 1 30 May 13:27:56 13:28:22 10° 274° (W) 13:28:31 437.445
DX 1 30 May 13:43:19 13:44:32 11° 300° (WNW) 13:45:34 434.975-435.025
DANDE 30 May 13:46:11 13:53:49 88° 280° (W) 14:02:30 436.750
CUSAT 1 30 May 13:51:27 13:59:13 68° 284° (WNW) 14:07:33 437.405
CUBEBUG 1 30 May 13:57:28 14:01:05 24° 293° (WNW) 14:04:35 437.445
ITUPSAT 1 30 May 13:59:24 14:01:54 14° 88° (E) 14:04:37 437.325
BEESAT 30 May 14:04:13 14:07:09 17° 90° (E) 14:10:16 436.000
VELOX 1 30 May 14:12:30 14:13:47 11° 300° (WNW) 14:14:51 145.980
GONETS M04 30 May 14:12:43 14:21:34 74° 281° (W) 14:30:26
SWISSCUBE 30 May 14:12:50 14:16:29 22° 92° (E) 14:20:14 437.505
SPROUT 30 May 14:20:49 14:24:55 41° 289° (WNW) 14:28:58 437.525
Gurwin Techsat 1B 30 May 14:23:21 14:28:20 44° 69° (ENE) 14:33:24 435.225
TISAT 1 30 May 14:28:48 14:32:55 46° 288° (WNW) 14:36:58 437.305
ESTCUBE 1 30 May 14:30:17 14:32:00 12° 300° (WNW) 14:33:29 437.505/2401.250
O/OREOS (USA 219) 30 May 14:37:51 14:40:23 15° 101° (E) 14:43:06 437.305
Oscar 19 30 May 14:39:48 14:44:41 40° 263° (W) 14:49:34 437.125/150
RS-15 30 May 14:39:49 14:49:00 27° 11° (N) 14:58:35 29.354- 29.394
Cosmos 2499 30 May 14:49:38 14:56:53 41° 90° (E) 15:03:47 435.465 / 435.565
ITAMSAT 1 30 May 15:02:03 15:07:13 81° 256° (WSW) 15:12:28 435.822/435.867
AO-7 30 May 15:02:18 15:09:21 34° 57° (ENE) 15:16:35 29.400- 29.500
JAS-2 30 May 15:13:15 15:18:29 29° 66° (ENE) 15:23:22 435.910
DANDE 30 May 15:32:14 15:38:28 23° 303° (WNW) 15:44:47 436.750
ITUPSAT 1 30 May 15:35:34 15:40:20 66° 286° (WNW) 15:45:06 437.325
STARS 30 May 15:36:32 15:39:09 16° 90° (E) 15:41:55 437.465
CUSAT 1 30 May 15:38:26 15:43:40 17° 306° (NW) 15:48:36 437.405
BEESAT 30 May 15:40:44 15:45:27 58° 288° (WNW) 15:50:07 436.000
SWISSCUBE 30 May 15:50:01 15:54:35 44° 290° (WNW) 15:59:05 437.505
Gurwin Techsat 1B 30 May 16:04:09 16:08:33 26° 267° (W) 16:12:53 435.225
HORYU 2 30 May 16:10:12 16:14:41 81° 75° (ENE) 16:19:10 437.375
GONETS M04 30 May 16:14:51 16:20:23 17° 306° (NW) 16:25:28
O/OREOS (USA 219) 30 May 16:14:58 16:19:24 56° 297° (WNW) 16:23:51 437.305
KKS-1 30 May 16:17:12 16:21:40 67° 101° (ESE) 16:26:06 437.445
MOZHAYETS 4 30 May 16:41:07 16:41:54 11° 86° (E) 16:42:59
Cosmos 2499 30 May 16:42:40 16:50:05 41° 288° (WNW) 16:56:58 435.465 / 435.565
AO-7 30 May 16:53:30 17:01:44 64° 257° (WSW) 17:10:01 29.400- 29.500
RS-15 30 May 16:53:40 17:04:50 53° 42° (NE) 17:16:34 29.354- 29.394
JAS-2 30 May 16:57:17 17:03:30 47° 261° (W) 17:09:02 435.910
STARS 30 May 17:11:39 17:15:59 53° 288° (WNW) 17:20:15 437.465
BEESAT 2 30 May 17:19:49 17:23:13 26° 115° (ESE) 17:26:42 435.950
AIST 2 30 May 17:37:49 17:39:17 12° 110° (ESE) 17:40:59 435.215
CUTE-I 30 May 17:45:20 17:49:36 26° 64° (ENE) 17:54:00 437.470
HORYU 2 30 May 17:51:03 17:52:00 10° 273° (W) 17:52:39 437.375
KKS-1 30 May 17:55:20 17:57:50 14° 298° (WNW) 18:00:09 437.445
YUBILEINY 30 May 17:55:43 18:03:27 35° 67° (ENE) 18:11:19 435.215
BEESAT 3 30 May 18:02:29 18:06:34 87° 129° (SE) 18:10:43 437.485
Cosmos 2491 30 May 18:06:21 18:11:22 18° 77° (ENE) 18:16:54 435.465 / 435.565
Cubesat XI-IV 30 May 18:06:28 18:11:21 39° 68° (ENE) 18:16:18 437.490
MOZHAYETS 4 30 May 18:15:15 18:19:50 82° 284° (WNW) 18:24:25
CUBESAT XI-V 30 May 18:30:05 18:32:09 13° 87° (E) 18:34:27 437.345
AO-7 30 May 18:53:34 18:56:29 11° 278° (W) 18:58:41 29.400- 29.500
BEESAT 2 30 May 18:57:21 19:01:11 35° 313° (NW) 19:05:02 435.950
HO-68 30 May 18:59:30 19:02:46 14° 49° (NE) 19:06:22 435.675
RS-15 30 May 19:06:20 19:17:36 56° 245° (WSW) 19:29:10 29.354- 29.394
AIST 2 30 May 19:13:04 19:17:20 78° 305° (NW) 19:21:39 435.215
CUTE-I 30 May 19:24:22 19:29:28 46° 261° (W) 19:34:35 437.470
PRISM 30 May 19:42:05 19:45:39 27° 95° (E) 19:49:16 437.425
BEESAT 3 30 May 19:42:42 19:45:10 15° 324° (NW) 19:47:34 437.485
GOMX 1 30 May 19:46:44 19:50:47 23° 64° (ENE) 19:55:04 467.674
Cubesat XI-IV 30 May 19:46:55 19:51:34 29° 266° (W) 19:56:10 437.490
STRAND 1 30 May 19:48:25 19:52:59 32° 95° (E) 19:57:36 437.568
YUBILEINY 30 May 19:52:19 20:00:44 55° 269° (W) 20:09:05 435.215
MOZHAYETS 4 30 May 19:55:50 19:56:23 10° 300° (WNW) 19:56:40
Cosmos 2491 30 May 19:58:13 20:07:02 84° 96° (E) 20:15:56 435.465 / 435.565
BRITE-PL 30 May 20:04:12 20:09:14 47° 70° (ENE) 20:14:36 437.365/2234.400
CUBESAT XI-V 30 May 20:05:29 20:10:11 71° 285° (WNW) 20:14:53 437.345
Cosmos 2504 30 May 20:21:35 20:27:27 27° 66° (ENE) 20:33:29 435.465 / 435.565
DOVE 4 30 May 20:26:31 20:31:10 34° 68° (ENE) 20:35:57 437.250
HO-68 30 May 20:42:13 20:49:15 63° 69° (ENE) 20:56:21 435.675
CANX-2 30 May 20:53:40 20:57:50 55° 74° (ENE) 21:01:59 2200.000
AIST 2 30 May 20:54:19 20:56:40 14° 326° (NW) 20:58:55 435.215
CUTE 1.7 + AOD 2 30 May 20:56:34 21:00:43 54° 73° (ENE) 21:04:53 437.475
AIST 1 30 May 21:09:01 21:13:17 77° 279° (W) 21:17:37
CINEMA 3 30 May 21:10:42 21:15:25 43° 70° (ENE) 21:20:10 145.822/145.860
SEEDS 30 May 21:12:26 21:16:37 67° 75° (ENE) 21:20:49 437.485
PRISM 30 May 21:17:30 21:21:04 27° 292° (WNW) 21:24:35 437.425
ZACube-1 30 May 21:18:51 21:21:47 18° 64° (ENE) 21:24:51 437.345
COMPASS 1 30 May 21:18:52 21:23:00 63° 75° (ENE) 21:27:08 437.405
Oscar 11 30 May 21:20:45 21:24:25 28° 68° (ENE) 21:28:08 145.826/435.025
M-CUBED/EXP-1 PRIME 30 May 21:22:54 21:26:12 72° 291° (WNW) 21:29:32 437.505
GOMX 1 30 May 21:23:19 21:28:30 55° 261° (W) 21:33:54 467.674
RS-15 30 May 21:24:36 21:27:53 11° 264° (W) 21:29:54 29.354- 29.394
AUBIESAT-1 30 May 21:26:56 21:30:16 75° 290° (WNW) 21:33:37 437.475
DELFI C3 30 May 21:27:14 21:30:20 22° 68° (ENE) 21:33:31 145.870
AAUSAT CUBESAT 2 30 May 21:27:20 21:31:27 67° 75° (ENE) 21:35:35 437.432
STRAND 1 30 May 21:27:34 21:32:12 34° 293° (WNW) 21:36:48 437.568
DX 1 30 May 21:28:58 21:30:02 11° 60° (ENE) 21:31:19 434.975-435.025
CUBEBUG 2 30 May 21:34:13 21:38:35 37° 70° (ENE) 21:42:57 437.445
BRITE-PL 30 May 21:43:35 21:48:00 26° 270° (W) 21:52:32 437.365/2234.400
ISS 30 May 21:50:45 21:52:25 14° 133° (SE) 21:54:09 145.825
Cosmos 2491 30 May 21:58:21 22:05:13 23° 300° (WNW) 22:11:47 435.465 / 435.565
VELOX 1 30 May 21:59:11 22:00:40 12° 60° (ENE) 22:02:22 145.980
DOVE 4 30 May 22:04:06 22:08:51 35° 266° (W) 22:13:41 437.250
FUNcube-1 30 May 22:10:52 22:15:19 54° 73° (ENE) 22:19:45 145.935
50 SAT 30 May 22:11:25 22:13:29 14° 65° (ENE) 22:15:42 437.505
UWE-3 30 May 22:12:11 22:16:50 72° 76° (ENE) 22:21:29 435.000/436.395/437.385
HUMSAT D 30 May 22:13:12 22:16:49 27° 69° (ENE) 22:20:28 437.325/437.525
Cosmos 2504 30 May 22:14:20 22:21:22 58° 267° (W) 22:28:23 435.465 / 435.565
ESTCUBE 1 30 May 22:19:02 22:20:20 11° 60° (ENE) 22:21:51 437.505/2401.250
GONETS M04 30 May 22:26:58 22:30:42 14° 51° (NE) 22:34:59
AISAT 30 May 22:30:03 22:33:36 24° 66° (ENE) 22:37:15 437.250
HO-68 30 May 22:31:33 22:37:32 27° 268° (W) 22:43:21 435.675
CANX-2 30 May 22:31:51 22:34:10 14° 271° (W) 22:36:18 2200.000
CUTE 1.7 + AOD 2 30 May 22:34:37 22:37:01 14° 271° (W) 22:39:15 437.475
UKube-1 30 May 22:46:13 22:50:28 60° 73° (ENE) 22:54:47 .
DANDE 30 May 22:46:23 22:51:17 19° 53° (NE) 22:55:49 436.750
CINEMA 3 30 May 22:48:38 22:52:46 25° 268° (W) 22:56:50 145.822/145.860
CUSAT 1 30 May 22:48:46 22:53:45 21° 57° (ENE) 22:58:09 437.405
SEEDS 30 May 22:51:27 22:52:57 11° 273° (W) 22:54:13 437.485
ZACube-1 30 May 22:53:16 22:57:47 55° 260° (W) 23:02:16 437.345
Oscar 11 30 May 22:56:46 23:00:33 29° 265° (W) 23:04:18 145.826/435.025
COMPASS 1 30 May 22:57:28 22:59:10 12° 272° (W) 23:00:39 437.405
DX 1 30 May 23:01:17 23:05:39 88° 249° (WSW) 23:10:04 434.975-435.025
DELFI C3 30 May 23:01:42 23:05:19 31° 264° (W) 23:08:55 145.870
TIGRISAT 30 May 23:04:19 23:07:07 17° 90° (E) 23:10:02 435.000
AAUSAT CUBESAT 2 30 May 23:06:18 23:07:36 11° 273° (W) 23:08:40 437.432
CUBEBUG 2 30 May 23:11:22 23:15:22 26° 267° (W) 23:19:16 437.445
QB50P2 30 May 23:18:17 23:19:29 11° 87° (E) 23:20:58 145.880/145.840
CUBEBUG 1 30 May 23:18:19 23:22:19 36° 70° (ENE) 23:26:23 437.445
ISS 30 May 23:25:12 23:28:26 83° 325° (NW) 23:31:43 145.825
UNISAT 6 30 May 23:25:57 23:29:47 30° 95° (E) 23:33:34 437.425
DUCHIFAT 1 30 May 23:27:01 23:29:04 13° 88° (E) 23:31:18 145.980
POPSAT HIP 1 30 May 23:28:31 23:30:48 14° 89° (E) 23:33:15 437.405
BUGSAT 1 30 May 23:32:08 23:32:22 10° 86° (E) 23:32:53 437.445
VELOX 1 30 May 23:32:10 23:36:37 84° 255° (WSW) 23:41:07 145.980
SPROUT 30 May 23:41:28 23:44:30 19° 65° (ENE) 23:47:38 437.525
50 SAT 30 May 23:43:55 23:47:49 53° 260° (W) 23:51:43 437.505
TISAT 1 30 May 23:48:08 23:50:47 17° 64° (ENE) 23:53:34 437.305
HUMSAT D 30 May 23:48:41 23:52:30 29° 265° (W) 23:56:15 437.325/437.525
FUNcube-1 30 May 23:49:01 23:52:00 16° 270° (W) 23:54:48 145.935
UWE-3 30 May 23:51:41 23:53:56 13° 273° (W) 23:55:56 435.000/436.395/437.385
ESTCUBE 1 30 May 23:52:06 23:56:35 87° 254° (WSW) 00:01:07 437.505/2401.250
AISAT 31 May 00:05:53 00:10:01 36° 263° (W) 00:14:10 437.250
ANTELSAT 31 May 00:09:04 00:13:28 87° 102° (ESE) 00:17:45 437.575/2403.000
QB50P1 31 May 00:10:45 00:14:48 41° 98° (E) 00:18:50 145.935-145.965
POLYITAN 1 31 May 00:15:10 00:19:18 46° 99° (E) 00:23:25 437.675
GONETS M04 31 May 00:21:15 00:29:58 62° 76° (ENE) 00:38:35
UKube-1 31 May 00:24:48 00:27:05 13° 271° (W) 00:29:09 .
DANDE 31 May 00:28:26 00:36:07 87° 78° (ENE) 00:41:58 436.750
CUSAT 1 31 May 00:30:37 00:37:32 70° 264° (W) 00:42:44 437.405
PCSat 31 May 00:38:16 00:43:33 58° 116° (ESE) 00:48:54 145.827
TIGRISAT 31 May 00:40:00 00:44:11 45° 289° (WNW) 00:48:16 435.000
Cosmos 2499 31 May 00:40:02 00:43:11 14° 56° (ENE) 00:46:46 435.465 / 435.565
NANOSAT C BR1 31 May 00:40:18 00:44:36 86° 102° (ESE) 00:48:51 145.865
VERMONT LUNAR 31 May 00:40:37 00:42:52 18° 156° (SSE) 00:45:08 437.305
BEESAT 3 31 May 00:43:12 00:45:19 14° 35° (NE) 00:47:30 437.485
O/OREOS (USA 219) 31 May 00:44:17 00:48:28 38° 59° (ENE) 00:52:40 437.305
